[[{"header":{"parameterUnit":"m.s-1","parameterCategory":1,"la1":30.2991,"la2":30.254,"lo1":-89.0895,"lo2":-89.0444,"dy":0.0017,"dx":0.0017,"nx":28,"ny":28,"refTime":"2024-05-26T03:00:00:Z","depth":0,"parameterNumber":2,"parameterNumberName":"U-component_of_WINDS"},"data":[0,0,0,0,0,0,0,0,0,0,0,0,0,0,0,0,0,0,0,0,0,0,0,0,0,0,0,0,0,0,0,0,0,0,0,0,0,0,0,0,0,0,0,0,0,0,0,0,0,0,0,0,0,0,0,0,0,0,-0.4861,-0.4862,0,-0.49,-0.4901,-0.4901,-0.4936,-0.4936,-0.4937,-0.4937,-0.4976,-0.4977,-0.4978,0,0,0,0,0,0,0,0,0,0,0,0,0,-0.4816,-0.4817,-0.4861,-0.4862,-0.4862,-0.49,-0.4901,-0.4901,-0.4936,-0.4936,-0.4937,-0.4937,-0.4976,-0.4977,-0.4978,0,0,0,0,0,0,0,0,0,0,0,0,0,-0.4844,-0.4817,-0.4861,-0.4884,-0.4886,-0.49,-0.4901,-0.4902,-0.4936,-0.4936,-0.4937,-0.4938,-0.4976,-0.4977,-0.4978,-0.4972,0,0,-0.4981,-0.4981,0,0,0,0,0,0,0,0,-0.4842,-0.4845,-0.488,-0.4882,-0.4885,-0.4914,-0.49,-0.4925,-0.4936,-0.4917,-0.4937,-0.4938,-0.4955,-0.4958,-0.4964,-0.4974,-0.4975,-0.4981,-0.4981,-0.4982,-0.4982,0,0,0,0,0,0,0,-0.484,-0.4844,-0.4877,-0.4881,-0.4884,-0.4892,-0.4897,-0.4905,-0.4932,-0.4919,-0.4921,-0.4926,-0.4956,-0.4963,-0.4965,-0.4976,-0.4981,-0.4982,-0.4982,-0.4983,-0.4984,-0.4984,0,0,0,0,0,0,-0.4835,-0.4842,-0.4875,-0.4878,-0.4865,-0.4893,-0.4898,-0.4904,-0.4932,-0.4937,-0.4925,-0.4927,-0.4961,-0.4964,-0.4966,-0.4962,-0.4982,-0.4983,-0.4983,-0.4985,-0.4984,-0.4983,0,0,0,0,0,0,-0.4834,-0.4838,-0.4874,-0.4861,-0.4866,-0.4893,-0.49,-0.4905,-0.4911,-0.4937,-0.4942,-0.4926,-0.4961,-0.4965,-0.4971,-0.4964,-0.4983,-0.4984,-0.4985,-0.4985,-0.4984,-0.4953,0,0,0,0,0,0,-0.4832,-0.4837,-0.4835,-0.486,-0.4867,-0.4877,-0.4899,-0.4905,-0.4913,-0.4916,-0.4939,-0.4944,-0.4962,-0.4969,-0.4972,-0.4966,-0.4985,-0.4986,-0.4985,-0.4984,-0.4954,-0.4951,-0.4948,0,0,0,0,0,-0.4831,-0.4824,-0.4834,-0.4838,-0.4864,-0.4877,-0.488,-0.4902,-0.4912,-0.491,-0.4927,-0.4943,-0.4964,-0.4969,-0.4972,-0.4967,-0.4987,-0.4985,-0.4984,-0.4956,-0.4952,-0.4948,0,0,0,0,0,0,-0.4796,-0.4828,-0.484,-0.4841,-0.4856,-0.4883,-0.4881,-0.4896,-0.4908,-0.491,-0.4936,-0.4941,-0.4944,-0.4956,-0.4961,-0.4963,-0.4978,-0.4977,-0.4955,-0.4951,-0.4948,-0.4945,-0.4986,0,0,0,0,0,-0.4789,-0.4796,-0.4823,-0.4822,-0.4829,-0.4854,-0.486,-0.4875,-0.4891,-0.4898,-0.4915,-0.493,-0.4941,-0.4947,-0.4957,-0.4957,-0.4963,-0.4954,-0.4951,-0.4948,-0.4947,-0.4949,-0.4946,-0.4979,-0.4979,-0.4979,0,0,-0.4773,-0.4792,-0.4794,-0.4816,-0.4829,-0.4836,-0.4859,-0.4865,-0.4871,-0.4899,-0.4905,-0.4919,-0.4937,-0.494,-0.4942,-0.495,-0.494,-0.4947,-0.4944,-0.4945,-0.4947,-0.4944,-0.4941,-0.4978,-0.4979,-0.4979,0,0,-0.4749,-0.4763,-0.4765,-0.4778,-0.4798,-0.4815,-0.4815,-0.484,-0.485,-0.4857,-0.4878,-0.4886,-0.4902,-0.4915,-0.4924,-0.4906,-0.4922,-0.4909,-0.4892,-0.4893,-0.489,-0.4888,-0.4883,-0.488,-0.4908,-0.4908,-0.4908,0,-0.4727,-0.4739,-0.4763,-0.4769,-0.4778,-0.4804,-0.4805,-0.4817,-0.484,-0.4845,-0.4854,-0.4877,-0.4891,-0.4898,-0.4893,-0.4899,-0.4901,-0.4906,-0.4889,-0.4887,-0.4885,-0.488,-0.4878,-0.4906,-0.4907,-0.4907,-0.4907,0,-0.4712,-0.472,-0.4719,-0.4741,-0.4749,-0.4753,-0.4777,-0.4783,-0.4798,-0.4814,-0.4821,-0.484,-0.4855,-0.4858,-0.4872,-0.4867,-0.4871,-0.4884,-0.4899,-0.488,-0.4876,-0.4874,-0.4904,-0.4905,-0.4905,-0.4905,0,0,-0.4666,-0.4702,-0.4701,-0.4712,-0.4737,-0.4744,-0.4749,-0.4765,-0.477,-0.4785,-0.479,-0.4804,-0.4817,-0.4827,-0.4843,-0.4844,-0.483,-0.4857,-0.4858,-0.4851,-0.4826,-0.4816,-0.4814,-0.484,-0.484,-0.484,-0.4825,0,-0.4647,-0.4658,-0.468,-0.4683,-0.4692,-0.4717,-0.4722,-0.4738,-0.4753,-0.4763,-0.4779,-0.4789,-0.4805,-0.4811,-0.4813,-0.4831,-0.4825,-0.4832,-0.4846,-0.4846,-0.484,-0.4811,-0.4801,-0.4786,-0.4823,-0.4823,-0.4823,0,-0.4625,-0.4639,-0.4644,-0.467,-0.4674,-0.4678,-0.4695,-0.4703,-0.4722,-0.4733,-0.4745,-0.4763,-0.477,-0.4784,-0.4795,-0.4799,-0.4806,-0.4816,-0.4816,-0.4818,-0.4833,-0.4813,-0.4781,-0.4779,-0.482,-0.482,-0.482,0,-0.4592,-0.4613,-0.4618,-0.4627,-0.4657,-0.4659,-0.4671,-0.4691,-0.4699,-0.4714,-0.472,-0.4735,-0.4743,-0.4755,-0.4777,-0.4785,-0.4785,-0.4801,-0.4795,-0.4794,-0.4794,-0.4793,-0.4763,-0.4797,-0.4798,-0.4798,-0.4798,0,-0.4568,-0.457,-0.4604,-0.4608,-0.4611,-0.4637,-0.4639,-0.4654,-0.4672,-0.4679,-0.4702,-0.4708,-0.4737,-0.4746,-0.4764,-0.477,-0.4774,-0.4783,-0.4787,-0.4781,-0.478,-0.4786,-0.4788,-0.4797,-0.4797,-0.4797,-0.4797,0,-0.4532,-0.4554,-0.4563,-0.4591,-0.4598,-0.4599,-0.4623,-0.4628,-0.4645,-0.4654,-0.4658,-0.4684,-0.4697,-0.472,-0.4739,-0.4751,-0.4754,-0.4761,-0.4748,-0.475,-0.4743,-0.4744,-0.4716,-0.4714,-0.4749,-0.4749,-0.4748,0,-0.4515,-0.4517,-0.4546,-0.4553,-0.4565,-0.4575,-0.4584,-0.4609,-0.4618,-0.4641,-0.4643,-0.4657,-0.467,-0.469,-0.4711,-0.4726,-0.4734,-0.4723,-0.4736,-0.473,-0.4735,-0.4734,-0.4735,-0.472,-0.472,-0.4719,-0.4719,0,-0.4483,-0.4494,-0.4507,-0.4523,-0.4534,-0.4548,-0.4563,-0.4567,-0.4596,-0.4605,-0.4619,-0.4629,-0.4649,-0.4663,-0.4682,-0.4695,-0.4712,-0.4715,-0.4714,-0.4708,-0.47,-0.4705,-0.474,-0.4715,-0.4716,-0.4716,-0.4716,-0.4716,-0.4456,-0.446,-0.4481,-0.4494,-0.4509,-0.4523,-0.4529,-0.4547,-0.4559,-0.4578,-0.4592,-0.4605,-0.4625,-0.4651,-0.4664,-0.4674,-0.4682,-0.4681,-0.4681,-0.468,-0.4678,-0.4698,-0.4677,-0.4678,-0.4678,-0.4678,-0.4678,0,-0.4426,-0.4441,-0.4453,-0.4475,-0.4485,-0.4501,-0.4519,-0.4527,-0.4538,-0.4555,-0.4568,-0.4584,-0.4599,-0.4621,-0.4638,-0.4642,-0.465,-0.4645,-0.4645,-0.4648,-0.467,-0.4669,-0.4638,-0.4638,-0.4638,-0.4638,-0.4638,-0.4638,-0.4412,-0.4419,-0.4434,-0.4449,-0.4464,-0.4477,-0.4486,-0.4499,-0.4514,-0.4531,-0.4543,-0.4558,-0.4578,-0.4596,-0.461,-0.4616,-0.4622,-0.4614,-0.4623,-0.4643,-0.4647,-0.465,-0.4649,-0.4615,-0.4615,-0.4601,-0.4601,-0.46]},{"header":{"parameterUnit":"m.s-1","parameterCategory":1,"la1":30.2991,"la2":30.254,"lo1":-89.0895,"lo2":-89.0444,"dy":0.0017,"dx":0.0017,"nx":28,"ny":28,"refTime":"2024-05-26T03:00:00:Z","depth":0,"parameterNumber":3,"parameterNumberName":"V-component_of_WINDS"},"data":[0,0,0,0,0,0,0,0,0,0,0,0,0,0,0,0,0,0,0,0,0,0,0,0,0,0,0,0,0,0,0,0,0,0,0,0,0,0,0,0,0,0,0,0,0,0,0,0,0,0,0,0,0,0,0,0,0,0,6.8429,6.843,0,6.8503,6.8503,6.8504,6.846,6.8458,6.8455,6.8453,6.8524,6.8528,6.8532,0,0,0,0,0,0,0,0,0,0,0,0,0,6.8246,6.8249,6.8429,6.843,6.8431,6.8502,6.8503,6.8504,6.846,6.8457,6.8455,6.8453,6.8523,6.8527,6.8532,0,0,0,0,0,0,0,0,0,0,0,0,0,6.8323,6.8251,6.8429,6.8417,6.8417,6.8502,6.8503,6.8505,6.8461,6.8457,6.8454,6.8451,6.8521,6.8527,6.8533,6.8632,0,0,6.855,6.8553,0,0,0,0,0,0,0,0,6.8319,6.833,6.8418,6.8418,6.8418,6.8469,6.8465,6.8547,6.8461,6.8444,6.8453,6.845,6.8508,6.8515,6.8535,6.8635,6.8638,6.8551,6.8554,6.8557,6.8558,0,0,0,0,0,0,0,6.8313,6.8326,6.8458,6.842,6.842,6.8407,6.8415,6.848,6.8493,6.8445,6.8442,6.8452,6.8507,6.853,6.8537,6.8639,6.8551,6.8556,6.8559,6.8562,6.8823,6.8826,0,0,0,0,0,0,6.8309,6.8322,6.8456,6.846,6.836,6.8413,6.8421,6.8456,6.8492,6.8494,6.8454,6.8449,6.8521,6.853,6.8539,6.8657,6.8557,6.8562,6.8565,6.882,6.8824,6.8828,0,0,0,0,0,0,6.8306,6.8322,6.8453,6.839,6.8406,6.842,6.8458,6.8459,6.8481,6.8499,6.85,6.8475,6.8519,6.8531,6.8609,6.8659,6.8565,6.857,6.8815,6.8821,6.8826,6.8894,0,0,0,0,0,0,6.8301,6.8321,6.8359,6.8392,6.841,6.8523,6.8462,6.8463,6.8492,6.8486,6.8519,6.8521,6.8518,6.8601,6.8615,6.8665,6.8574,6.8811,6.8818,6.8824,6.8887,6.8901,6.8913,0,0,0,0,0,6.8294,6.8375,6.8362,6.8378,6.8459,6.8526,6.8536,6.8532,6.8496,6.8534,6.8546,6.852,6.8651,6.8609,6.8625,6.8677,6.8808,6.8816,6.8823,6.8882,6.8898,6.8912,0,0,0,0,0,0,6.8346,6.8379,6.8365,6.8458,6.849,6.8519,6.8567,6.855,6.8591,6.8584,6.8575,6.8583,6.8665,6.8679,6.8631,6.8775,6.8724,6.8735,6.8763,6.8778,6.8791,6.8785,6.8579,0,0,0,0,0,6.8369,6.8423,6.8448,6.8528,6.8545,6.8553,6.8582,6.8577,6.8608,6.8621,6.8638,6.8669,6.8717,6.8748,6.8793,6.8889,6.8895,6.8933,6.8946,6.8956,6.8966,6.9017,6.9034,6.8853,6.8853,6.8853,0,0,6.8416,6.844,6.8474,6.8539,6.8563,6.8617,6.8565,6.8624,6.8664,6.8629,6.8705,6.8719,6.8752,6.884,6.8879,6.8854,6.9017,6.8966,6.8974,6.8978,6.9027,6.9044,6.9059,6.8859,6.8858,6.8857,0,0,6.8529,6.8554,6.8623,6.8648,6.8686,6.8691,6.8708,6.8739,6.8748,6.8824,6.8799,6.8845,6.8928,6.8953,6.8977,6.91,6.9078,6.9115,6.918,6.9231,6.9245,6.9257,6.9301,6.9317,6.9124,6.9125,6.9125,0,6.8582,6.8665,6.866,6.8723,6.8751,6.8724,6.8794,6.8818,6.8868,6.8887,6.8859,6.8963,6.8983,6.9076,6.9107,6.9127,6.9145,6.9111,6.9243,6.9256,6.9267,6.9309,6.9325,6.9129,6.9128,6.9128,6.9128,0,6.8728,6.8786,6.8837,6.8888,6.8922,6.8987,6.8992,6.9027,6.9018,6.9026,6.9103,6.9127,6.9177,6.9198,6.9189,6.929,6.9273,6.9245,6.9193,6.9289,6.9328,6.9344,6.9135,6.9133,6.9132,6.9131,0,0,6.8876,6.8924,6.8943,6.8965,6.9005,6.9048,6.9112,6.9162,6.9192,6.9227,6.928,6.9351,6.9325,6.9352,6.9345,6.939,6.9486,6.9355,6.9356,6.9378,6.9597,6.9619,6.9637,6.9471,6.9474,6.9477,6.9594,0,6.8991,6.9105,6.9103,6.9207,6.926,6.9235,6.929,6.932,6.9329,6.9374,6.9383,6.9434,6.9395,6.9411,6.9454,6.9465,6.9529,6.9456,6.9519,6.9521,6.9511,6.9658,6.9681,6.9791,6.961,6.9612,6.9614,0,6.9141,6.9183,6.9294,6.9326,6.9348,6.9398,6.9443,6.9487,6.952,6.9523,6.9554,6.954,6.9604,6.9551,6.9638,6.9588,6.9614,6.9623,6.9627,6.9632,6.9573,6.9667,6.9826,6.9842,6.9638,6.9636,6.9634,0,6.9238,6.9322,6.9398,6.9419,6.9458,6.9494,6.9511,6.9541,6.9571,6.9611,6.963,6.9676,6.9701,6.9736,6.9735,6.9697,6.9823,6.977,6.9826,6.9827,6.9854,6.9852,7.0019,6.9871,6.9871,6.987,6.987,0,6.9367,6.9435,6.9442,6.949,6.9565,6.9562,6.9636,6.965,6.9677,6.9725,6.9706,6.9751,6.9748,6.9793,6.9793,6.9865,6.9876,6.988,6.9879,6.9882,6.9881,6.9898,6.989,6.9875,6.9874,6.9873,6.9872,0,6.9487,6.9495,6.9577,6.9608,6.9617,6.9672,6.9697,6.9742,6.9749,6.9811,6.9825,6.9837,6.989,6.9892,6.9953,6.9953,7.004,7.003,7.0029,7.0028,7.0084,7.0078,7.0267,7.0291,7.0128,7.0129,7.0131,0,6.9569,6.9621,6.9658,6.969,6.9711,6.9762,6.9793,6.9791,6.9824,6.9866,6.9905,6.9956,6.9997,7.0083,7.0096,7.0142,7.0133,7.0196,7.014,7.0141,7.0134,7.0131,7.0136,7.0207,7.0209,7.021,7.0211,0,6.9713,6.9715,6.9761,6.981,6.9848,6.9885,6.992,6.9947,6.9949,6.9987,7.0042,7.0074,7.0136,7.0187,7.0232,7.0249,7.023,7.0229,7.0244,7.0248,7.0245,7.0247,7.0059,7.0224,7.0223,7.0222,7.0221,7.0221,6.9816,6.9862,6.9895,6.9948,6.9974,7.0007,7.0051,7.0064,7.011,7.0162,7.0158,7.0219,7.0249,7.0308,7.0329,7.0375,7.0353,7.0376,7.0381,7.0387,7.0393,7.0238,7.0383,7.0383,7.0382,7.0382,7.0382,0,6.9959,6.998,7.0028,7.0079,7.012,7.01,7.0138,7.0173,7.0227,7.0258,7.03,7.0362,7.0412,7.0429,7.0477,7.0511,7.0503,7.0523,7.052,7.0525,7.041,7.0391,7.0528,7.0528,7.0528,7.0528,7.0528,7.0528,7.0039,7.0114,7.012,7.0208,7.0227,7.0288,7.0311,7.0341,7.0366,7.0438,7.0479,7.0491,7.0516,7.0566,7.061,7.0613,7.0632,7.0655,7.0655,7.0547,7.0533,7.0519,7.0501,7.0659,7.0659,7.0766,7.0767,7.0768]}]]